2019-089B (44853 NORAD) Tracking and Keplerian Element Data

This shows tracking and keplerian element data for the satellite.

Feedback or suggestion? Click here.




ElementValue
Catalog44853
Name2019-089B
Epoch Orbit637
Epoch Day23.01043644
Epoch Year2020
RAAN243.6255
Inclination36.9677
Eccentricity0.0007901
Argument of Perigee322.8231
Mean Anonmoly37.1971
Mean Motion14.992168
Decay Rate1.91E-06
L11 44853U 19089B 20023.01043644 .00000191 00000-0 21816-4 0 9993
L22 44853 36.9677 243.6255 0007901 322.8231 37.1971 14.99216800 6373

Live tracking and technical data element details for 2019-089B (NORAD 44853). 2019-089B can be tracked NOW for your location showing map with azimuth and elevation plus other details from your city location.

Track the satellite on the map from your city or location and see movement details for azimuth, elevation, latitude, longitude, range, height, and movement on the map or in text.







IsCatalogInMostPopularTable: catalog: 44853, numindb: 8
Update: records affected: 1



GetName: 44853 2019-089B

Hit Count: updated at: Fri, 24 Jan 2020 10:46:31 GMT